Waarnemingen

Advertentie
Mijn weer
Florennes, België (6456): temperatuur & dauwpunt: 20.05.2018 23:00:00 - 26.05.2018 23:00:00 (CEST)Florennes, België (6456): windsnelheid & windstoten: 20.05.2018 23:00:00 - 26.05.2018 23:00:00 (CEST)Florennes, België (6456): windrichting: 20.05.2018 23:00:00 - 26.05.2018 23:00:00 (CEST)Florennes, België (6456): luchtdruk: 20.05.2018 23:00:00 - 26.05.2018 23:00:00 (CEST)Florennes, België (6456): zicht: 20.05.2018 23:00:00 - 26.05.2018 23:00:00 (CEST)
Datum & Tijd tt [°C] td [°C] ff [km/u] ff [kn] fx [km/u] fx [kn] dd ppp [hPa] vv [km]
26.05.2018 23:00:00 - - - - - - - - -
26.05.2018 22:00:00 - - - - - - - - -
26.05.2018 21:00:00 - - - - - - - - -
26.05.2018 20:00:00 - - - - - - - - -
26.05.2018 19:00:00 27,4 11,5 11 6 22 12 ZO 1016,7 20
26.05.2018 18:00:00 27,9 11,5 11 6 22 12 ZO 1016,8 20
26.05.2018 17:00:00 28,1 12,5 11 6 - - ZO 1017,0 20
26.05.2018 16:00:00 27,4 12,1 14 8 25 14 ZO 1017,2 20
26.05.2018 15:00:00 28,1 11,8 14 8 29 16 ZO 1017,5 20
26.05.2018 14:00:00 27,6 12,5 11 6 - - OZO 1017,8 20
26.05.2018 13:00:00 25,8 12,5 11 6 22 12 OZO 1018,1 20
26.05.2018 12:00:00 25,1 13,0 14 8 22 12 O 1018,0 20
26.05.2018 11:00:00 23,1 13,9 14 8 - - OZO 1018,2 20
26.05.2018 10:00:00 21,8 14,1 14 8 18 10 O 1018,1 19
26.05.2018 09:00:00 19,1 14,2 14 8 18 10 O 1018,3 20
26.05.2018 08:00:00 15,5 12,8 4 2 - - N 1018,7 8
26.05.2018 07:00:00 14,8 12,7 4 2 11 6 N 1018,8 8
26.05.2018 06:00:00 14,6 12,4 7 4 11 6 O 1018,2 16
26.05.2018 05:00:00 15,1 12,7 7 4 - - O 1018,2 13
26.05.2018 04:00:00 15,8 12,9 7 4 7 4 O 1018,1 17
26.05.2018 03:00:00 15,9 13,1 7 4 7 4 O 1018,2 19
26.05.2018 02:00:00 16,4 13,2 4 2 - - N 1018,3 20
26.05.2018 01:00:00 16,0 13,0 4 2 7 4 N 1018,5 20
26.05.2018 00:00:00 18,0 13,2 7 4 11 6 ONO 1018,0 20
25.05.2018 23:00:00 18,8 13,2 4 2 - - N 1018,0 20
25.05.2018 22:00:00 19,7 13,5 4 2 7 4 N 1017,7 20
25.05.2018 21:00:00 21,3 12,9 4 2 7 4 N 1017,0 20
25.05.2018 20:00:00 21,5 12,1 4 2 - - N 1016,8 20
25.05.2018 19:00:00 23,0 11,7 7 4 11 6 O 1016,7 20
25.05.2018 18:00:00 23,4 11,1 7 4 14 8 O 1016,7 20
25.05.2018 17:00:00 23,2 11,6 7 4 - - O 1017,2 20
25.05.2018 16:00:00 22,8 12,1 4 2 11 6 N 1017,2 25
25.05.2018 15:00:00 23,2 12,1 4 2 11 6 N 1017,2 25
25.05.2018 14:00:00 23,1 12,1 4 2 - - N 1017,2 25
25.05.2018 13:00:00 22,2 12,9 4 2 14 8 N 1017,5 20
25.05.2018 12:00:00 21,9 13,5 7 4 14 8 ZW 1017,7 20
25.05.2018 11:00:00 20,2 15,1 4 2 - - N 1017,6 20
25.05.2018 10:00:00 19,3 14,5 4 2 7 4 N 1017,7 20
25.05.2018 09:00:00 17,2 14,1 4 2 7 4 N 1018,0 20
25.05.2018 08:00:00 16,0 13,7 4 2 - - N 1017,7 3,5
25.05.2018 07:00:00 12,6 11,9 7 4 11 6 O 1017,7 0,6
25.05.2018 06:00:00 11,8 10,9 7 4 11 6 O 1017,6 0,5
25.05.2018 05:00:00 13,0 12,1 7 4 - - O 1017,2 0,6
25.05.2018 04:00:00 11,6 10,7 4 2 7 4 N 1017,3 0,7
25.05.2018 03:00:00 12,9 12,5 4 2 11 6 N 1017,2 0,2
25.05.2018 02:00:00 13,2 12,4 11 6 - - O 1017,3 2,1
25.05.2018 01:00:00 14,3 13,0 4 2 7 4 N 1017,7 6
25.05.2018 00:00:00 14,8 14,1 4 2 18 10 N 1017,6 4,7
24.05.2018 23:00:00 15,1 13,7 4 2 - - N 1017,2 8
24.05.2018 22:00:00 16,1 14,4 7 4 14 8 ZZO 1017,1 16
24.05.2018 21:00:00 17,7 15,6 4 2 11 6 N 1016,2 14
24.05.2018 20:00:00 18,3 15,1 4 2 - - N 1016,1 20
24.05.2018 19:00:00 18,2 14,5 4 2 4 2 N 1015,8 20
24.05.2018 18:00:00 16,8 13,9 4 2 7 4 N 1016,5 20
24.05.2018 17:00:00 16,7 13,3 4 2 - - N 1016,2 12
24.05.2018 16:00:00 16,9 14,6 11 6 29 16 Z 1016,7 7
24.05.2018 15:00:00 20,8 13,1 4 2 14 8 N 1016,2 20
24.05.2018 14:00:00 20,0 13,8 4 2 - - N 1017,0 20
24.05.2018 13:00:00 19,4 13,2 4 2 14 8 N 1017,5 20
24.05.2018 12:00:00 19,1 12,9 7 4 11 6 Z 1017,7 20
24.05.2018 11:00:00 17,4 13,6 4 2 - - N 1017,8 12
24.05.2018 10:00:00 16,3 13,3 7 4 14 8 O 1018,3 9
24.05.2018 09:00:00 15,0 12,9 4 2 0 0 N 1018,6 8
24.05.2018 08:00:00 14,3 12,5 7 4 - - ONO 1018,7 8
24.05.2018 07:00:00 13,1 12,2 4 2 0 0 N 1018,8 8
24.05.2018 06:00:00 12,9 11,9 4 2 0 0 N 1019,0 8
24.05.2018 05:00:00 13,1 12,2 4 2 - - - 1019,2 9
24.05.2018 04:00:00 13,3 12,3 - - 0 0 - 1019,2 13
24.05.2018 03:00:00 13,3 12,5 - - 0 0 - 1019,2 13
24.05.2018 02:00:00 13,4 12,5 - - - - - 1019,6 12
24.05.2018 01:00:00 13,5 12,5 - - 0 0 - 1020,0 16
24.05.2018 00:00:00 13,2 12,5 - - 0 0 - 1020,3 4,8
23.05.2018 23:00:00 13,5 11,9 - - - - - 1021,1 17
23.05.2018 22:00:00 15,4 13,1 - - 0 0 - 1020,0 9
23.05.2018 21:00:00 16,7 12,7 - - 0 0 - 1019,2 20
23.05.2018 20:00:00 16,7 12,5 - - - - - 1018,7 20
23.05.2018 19:00:00 16,8 12,5 - - 0 0 - 1018,7 20
23.05.2018 18:00:00 18,3 11,3 - - 0 0 - 1018,6 20
23.05.2018 17:00:00 19,7 11,8 - - - - - 1018,2 20
23.05.2018 16:00:00 20,8 13,0 14 8 0 0 ONO 1017,8 12
23.05.2018 15:00:00 19,0 13,2 11 6 0 0 NO 1018,6 10
23.05.2018 14:00:00 19,3 13,7 11 6 - - NO 1018,7 7
23.05.2018 13:00:00 18,5 12,7 7 4 0 0 NO 1019,0 7
23.05.2018 12:00:00 16,5 13,0 13 7 0 0 NNO 1019,0 7
23.05.2018 11:00:00 15,6 12,7 14 8 - - NO 1018,8 4,5
23.05.2018 10:00:00 14,9 12,8 11 6 0 0 NNO 1018,7 4,0
23.05.2018 09:00:00 14,2 12,6 7 4 0 0 NNO 1018,5 2,0
23.05.2018 08:00:00 13,5 12,7 7 4 - - NNO 1018,2 1,8
23.05.2018 07:00:00 13,0 12,4 7 4 0 0 NNO 1017,6 1,0
23.05.2018 06:00:00 12,6 11,9 4 2 0 0 N 1017,2 1,8
23.05.2018 05:00:00 12,3 11,5 9 5 - - N 1017,0 2,5
23.05.2018 04:00:00 12,1 11,2 - - 0 0 - 1016,7 3,0
23.05.2018 03:00:00 12,6 11,8 - - 0 0 - 1016,3 2,5
23.05.2018 02:00:00 12,7 12,1 - - - - - 1016,3 3,7
23.05.2018 01:00:00 13,0 11,7 - - 0 0 - 1016,2 2,5
23.05.2018 00:00:00 12,8 11,2 7 4 11 6 ONO 1016,3 19
22.05.2018 23:00:00 14,3 12,0 4 2 - - N 1015,5 14
22.05.2018 22:00:00 15,3 10,9 4 2 11 6 N 1014,7 19
22.05.2018 21:00:00 15,8 10,7 4 2 14 8 N 1014,6 10
22.05.2018 20:00:00 16,6 11,1 7 4 - - NNW 1014,6 20
22.05.2018 19:00:00 17,3 10,3 11 6 32 18 O 1013,6 10
22.05.2018 18:00:00 20,3 9,7 4 2 11 6 N 1012,2 20
22.05.2018 17:00:00 21,5 10,5 4 2 - - N 1012,2 20
22.05.2018 16:00:00 20,8 11,3 7 4 14 8 W 1012,3 20
22.05.2018 15:00:00 20,3 11,5 7 4 18 10 WNW 1012,3 20
22.05.2018 14:00:00 20,8 12,1 11 6 - - W 1012,5 20
22.05.2018 13:00:00 21,1 11,3 7 4 14 8 N 1012,5 20
22.05.2018 12:00:00 19,7 12,1 4 2 14 8 N 1012,7 20
22.05.2018 11:00:00 19,7 11,8 7 4 - - W 1012,6 20
22.05.2018 10:00:00 19,1 11,3 4 2 11 6 N 1012,5 20
22.05.2018 09:00:00 18,3 13,1 4 2 4 2 N 1012,2 20
22.05.2018 08:00:00 13,8 12,0 4 2 - - N 1012,5 20
22.05.2018 07:00:00 12,3 10,4 4 2 4 2 N 1012,6 20
22.05.2018 06:00:00 11,6 10,3 4 2 7 4 N 1012,2 20
22.05.2018 05:00:00 10,5 9,1 7 4 - - O 1012,2 16
22.05.2018 04:00:00 11,5 9,7 4 2 4 2 N 1012,2 20
22.05.2018 03:00:00 12,5 10,0 4 2 0 0 N 1012,1 20
22.05.2018 02:00:00 12,3 10,5 4 2 - - N 1012,3 20
22.05.2018 01:00:00 12,3 10,8 4 2 4 2 N 1012,7 20
22.05.2018 00:00:00 12,8 10,8 4 2 4 2 N 1012,7 20
21.05.2018 23:00:00 14,1 11,8 4 2 - - N 1012,3 20
21.05.2018 22:00:00 16,2 11,1 7 4 18 10 O 1012,2 20
21.05.2018 21:00:00 16,2 10,6 4 2 18 10 N 1012,1 20
21.05.2018 20:00:00 19,6 12,2 7 4 - - N 1011,2 16
21.05.2018 19:00:00 22,0 9,9 4 2 22 12 N 1011,0 20
21.05.2018 18:00:00 21,5 8,3 11 6 22 12 ZZO 1011,1 20
21.05.2018 17:00:00 22,6 9,3 7 4 - - ZZO 1011,3 20
21.05.2018 16:00:00 20,7 9,9 11 6 18 10 OZO 1012,0 20
21.05.2018 15:00:00 20,5 10,4 7 4 22 12 O 1012,3 20
21.05.2018 14:00:00 20,2 10,0 7 4 - - ONO 1012,7 20
21.05.2018 13:00:00 19,2 11,1 11 6 18 10 O 1013,5 18
21.05.2018 12:00:00 18,3 10,0 7 4 22 12 O 1013,7 20
21.05.2018 11:00:00 16,9 9,0 14 8 - - OZO 1014,3 19
21.05.2018 10:00:00 15,4 10,1 14 8 25 14 O 1014,8 20
21.05.2018 09:00:00 13,8 10,0 14 8 22 12 O 1015,5 19
21.05.2018 08:00:00 12,0 9,9 11 6 - - ONO 1015,8 20
21.05.2018 07:00:00 11,1 9,7 11 6 18 10 ONO 1016,2 20
21.05.2018 06:00:00 11,6 9,8 11 6 25 14 ONO 1016,3 20
21.05.2018 05:00:00 11,9 9,8 14 8 - - ONO 1016,3 15
21.05.2018 04:00:00 12,2 10,0 18 10 25 14 O 1017,2 20
21.05.2018 03:00:00 11,6 9,6 11 6 22 12 ONO 1017,5 20
21.05.2018 02:00:00 12,1 9,8 18 10 - - O 1018,6 19
21.05.2018 01:00:00 12,8 9,2 18 10 32 18 O 1019,2 20
21.05.2018 00:00:00 14,0 8,6 22 12 32 18 O 1019,1 20
20.05.2018 23:00:00 13,7 8,5 11 6 - - O 1018,8 20

tt = temperatuur
td = dauwpunt
ff = windsnelheid
fx = windstoten
dd = windrichting
ppp = luchtdruk
vv = zicht

Weerstations in de omgeving